Location: Burbank
(38.7788°N, 114.0429°W)
Time: 09:59:11
(UTC+00:00)

Tiros 1 - All Passes

Search period start: 15 May 2026 00:00
Search period end: 25 May 2026 00:00
Orbit: 618 x 648 km, 48.4° (Epoch: 14 May)

Date Brightness Start Highest point End Pass type
(mag) Time Alt. Az. Time Alt. Az. Time Alt. Az.
15 May - 05:34:28 10° S 05:37:51 20° SE 05:41:13 10° E night (unlit)
15 May - 07:14:42 10° WSW 07:19:20 78° NNW 07:23:57 10° NE visible
15 May - 08:57:43 10° WNW 09:01:43 28° NNW 09:05:42 10° NE visible
15 May - 10:40:46 10° NW 10:44:36 25° N 10:48:25 10° ENE visible
15 May - 12:22:39 10° NW 12:27:10 57° NNE 12:31:38 10° ESE daylight
15 May - 14:04:53 10° WNW 14:08:50 29° SW 14:12:47 10° SSE daylight
16 May - 05:54:42 10° SSW 05:59:05 42° SE 06:03:26 10° ENE visible
16 May - 07:36:32 10° W 07:40:58 45° NNW 07:45:23 10° NE visible
16 May - 09:19:53 10° WNW 09:23:39 24° N 09:27:24 10° NE visible
16 May - 11:02:22 10° NW 11:06:29 32° NNE 11:10:35 10° E visible
16 May - 12:44:09 10° WNW 12:48:42 78° SW 12:53:15 10° SE daylight
16 May - 14:27:46 10° W 14:29:59 13° SW 14:32:11 10° SSW daylight
17 May - 04:36:20 10° SSE 04:39:07 16° SE 04:41:54 10° E night (unlit)
17 May - 06:15:50 10° SW 06:20:29 86° SE 06:25:06 10° ENE visible
17 May - 07:58:38 10° WNW 08:02:45 31° NNW 08:06:50 10° NE visible
17 May - 09:41:49 10° NW 09:45:37 25° N 09:49:23 10° ENE visible
17 May - 11:23:50 10° NW 11:28:16 48° NNE 11:32:40 10° E visible
17 May - 13:05:52 10° WNW 13:10:04 37° SW 13:14:15 10° SSE daylight
18 May - 04:56:06 10° SSW 05:00:18 34° SE 05:04:27 10° ENE night (unlit)
18 May - 06:37:31 10° WSW 06:42:03 53° NNW 06:46:34 10° NE visible
18 May - 08:20:49 10° WNW 08:24:39 25° N 08:28:28 10° NE visible
18 May - 10:03:30 10° NW 10:07:32 29° NNE 10:11:32 10° ENE visible
18 May - 11:45:17 10° WNW 11:49:52 86° NNE 11:54:25 10° ESE visible
18 May - 13:28:16 10° W 13:31:16 17° SW 13:34:14 10° S daylight
19 May - 03:38:32 10° SSE 03:40:23 12° SE 03:42:14 10° ESE visible
19 May - 05:17:00 10° SW 05:21:38 71° SE 05:26:14 10° ENE visible
19 May - 06:59:33 10° W 07:03:47 34° NNW 07:08:00 10° NE visible
19 May - 08:42:51 10° NW 08:46:37 24° N 08:50:22 10° ENE visible
19 May - 10:25:00 10° NW 10:29:21 42° NNE 10:33:40 10° E visible
19 May - 12:06:54 10° WNW 12:11:17 47° SW 12:15:38 10° SSE daylight
20 May - 03:57:35 10° SSW 04:01:30 27° SE 04:05:24 10° ENE visible
20 May - 05:38:32 10° WSW 05:43:09 62° NNW 05:47:44 10° NE visible
20 May - 07:21:45 10° WNW 07:25:40 26° N 07:29:34 10° NE visible
20 May - 09:04:36 10° NW 09:08:33 27° N 09:12:29 10° ENE visible
20 May - 10:46:25 10° NW 10:51:00 71° NNE 10:55:32 10° ESE visible
20 May - 12:29:00 10° W 12:32:31 22° SW 12:36:01 10° S daylight
21 May - 04:18:14 10° SW 04:22:48 57° SE 04:27:21 10° ENE visible
21 May - 06:00:29 10° W 06:04:50 38° NNW 06:09:10 10° NE visible
21 May - 07:43:50 10° NW 07:47:36 24° N 07:51:22 10° NE visible
21 May - 09:26:08 10° NW 09:30:25 37° NNE 09:34:39 10° E visible
21 May - 11:07:58 10° WNW 11:12:29 59° SW 11:16:56 10° SE visible
22 May - 02:59:12 10° S 03:02:44 21° SE 03:06:16 10° E daylight
22 May - 04:39:35 10° WSW 04:44:15 75° NNW 04:48:54 10° NE visible
22 May - 06:22:39 10° WNW 06:26:41 28° NNW 06:30:40 10° NE visible
22 May - 08:05:41 10° NW 08:09:34 26° N 08:13:26 10° ENE visible
22 May - 09:47:34 10° NW 09:52:07 59° NNE 09:56:37 10° ESE visible
22 May - 11:29:52 10° WNW 11:33:46 28° SW 11:37:38 10° SSE visible
23 May - 03:19:31 10° SSW 03:23:59 45° SE 03:28:24 10° ENE visible
23 May - 05:01:26 10° W 05:05:53 44° NNW 05:10:20 10° NE visible
23 May - 06:44:48 10° WNW 06:48:37 24° N 06:52:24 10° NE visible
23 May - 08:27:16 10° NW 08:31:27 33° NNE 08:35:36 10° E visible
23 May - 10:09:04 10° WNW 10:13:38 74° SW 10:18:11 10° SE visible
23 May - 11:52:55 10° WSW 11:54:53 13° SW 11:56:50 10° SSW daylight
24 May - 02:00:59 10° S 02:03:58 17° SE 02:06:58 10° E daylight
24 May - 03:40:41 10° SW 03:45:22 90° WSW 03:50:03 10° ENE visible
24 May - 05:23:33 10° WNW 05:27:41 31° NNW 05:31:48 10° NE visible
24 May - 07:06:43 10° NW 07:10:34 25° N 07:14:23 10° ENE visible
24 May - 08:48:43 10° NW 08:53:12 50° NNE 08:57:39 10° ESE visible
24 May - 10:30:49 10° WNW 10:35:00 35° SW 10:39:07 10° SSE visible
